Location: Kershaw
(34.5481°N, 80.5823°W)
Time: 03:20:33
(UTC+00:00)

Tiros 1 despin weight - Pass Details

Date: 09 October 2022
Orbit: 590 x 637 km, 48.2° (Epoch: 30 November)

Event Time Altitude Azimuth Distance (km) Brightness Sun altitude
Rises 19:49:46 0° 274° (W) 2,821 ? 34.2°
Reaches altitude 10° 19:52:30 10° 290° (WNW) 1,927 ? 33.8°
Maximum altitude 19:55:54 21° 340° (NNW) 1,348 ? 33.2°
Drops below altitude 10° 19:59:21 10° 31° (NNE) 1,951 ? 32.7°
Sets 20:02:08 0° 47° (NE) 2,866 ? 32.2°
